Time,TemperatureF,DewpointF,PressureIn,WindDirection,WindDirectionDegrees,WindSpeedMPH,WindSpeedGustMPH,Humidity,HourlyPrecipIn,Conditions,Clouds,dailyrainin,SolarRadiationWatts/m^2,SoftwareType,DateUTC
2013-07-19 00:22:00,56.0,41.0,-100.00,East,81,5.0,10.0,57,0.00,,,0.00,0.000000,,2013-07-19 06:22:00,
2013-07-19 00:32:00,56.0,41.0,-100.00,East,81,5.0,10.0,57,0.00,,,0.00,0.000000,,2013-07-19 06:32:00,
2013-07-19 00:43:00,56.0,41.0,-100.00,East,81,5.0,10.0,57,0.00,,,0.00,0.000000,,2013-07-19 06:43:00,
2013-07-19 00:52:00,54.0,39.0,-100.00,ENE,77,7.0,12.0,57,0.00,,,0.00,0.000000,,2013-07-19 06:52:00,
2013-07-19 01:22:00,54.0,39.0,-100.00,ENE,77,7.0,12.0,57,0.00,,,0.00,0.000000,,2013-07-19 07:22:00,
2013-07-19 01:32:00,54.0,39.0,-100.00,ENE,77,7.0,12.0,57,0.00,,,0.00,0.000000,,2013-07-19 07:32:00,
2013-07-19 01:43:00,54.0,39.0,-100.00,ENE,77,7.0,12.0,57,0.00,,,0.00,0.000000,,2013-07-19 07:43:00,
2013-07-19 01:52:00,53.0,38.0,-100.00,East,79,7.0,10.0,57,0.00,,,-99.99,0.000000,,2013-07-19 07:52:00,
2013-07-19 02:22:00,53.0,38.0,-100.00,East,79,7.0,10.0,57,0.00,,,-99.99,0.000000,,2013-07-19 08:22:00,
2013-07-19 02:32:00,53.0,38.0,-100.00,East,79,7.0,10.0,57,0.00,,,-99.99,0.000000,,2013-07-19 08:32:00,
2013-07-19 02:43:00,53.0,38.0,-100.00,East,79,7.0,10.0,57,0.00,,,-99.99,0.000000,,2013-07-19 08:43:00,
2013-07-19 02:52:00,50.0,38.0,-100.00,East,81,8.0,11.0,62,0.00,,,-99.99,0.000000,,2013-07-19 08:52:00,
2013-07-19 03:22:00,50.0,38.0,-100.00,East,81,8.0,11.0,62,0.00,,,-99.99,0.000000,,2013-07-19 09:22:00,
2013-07-19 03:32:00,50.0,38.0,-100.00,East,81,8.0,11.0,62,0.00,,,-99.99,0.000000,,2013-07-19 09:32:00,
2013-07-19 03:43:00,50.0,38.0,-100.00,East,81,8.0,11.0,62,0.00,,,-99.99,0.000000,,2013-07-19 09:43:00,
2013-07-19 03:52:00,49.0,37.0,-100.00,East,79,7.0,11.0,62,0.00,,,0.00,0.000000,,2013-07-19 09:52:00,
2013-07-19 04:22:00,49.0,37.0,-100.00,East,79,7.0,11.0,62,0.00,,,0.00,0.000000,,2013-07-19 10:22:00,
2013-07-19 04:32:00,49.0,37.0,-100.00,East,79,7.0,11.0,62,0.00,,,0.00,0.000000,,2013-07-19 10:32:00,
2013-07-19 04:43:00,49.0,37.0,-100.00,East,79,7.0,11.0,62,0.00,,,0.00,0.000000,,2013-07-19 10:43:00,
2013-07-19 04:52:00,48.0,36.0,-100.00,ENE,77,8.0,12.0,64,0.00,,,0.00,0.000000,,2013-07-19 10:52:00,
2013-07-19 05:22:00,48.0,36.0,-100.00,ENE,77,8.0,12.0,64,0.00,,,0.00,0.000000,,2013-07-19 11:22:00,
2013-07-19 05:33:00,48.0,36.0,-100.00,ENE,77,8.0,12.0,64,0.00,,,0.00,0.000000,,2013-07-19 11:33:00,
2013-07-19 05:43:00,48.0,36.0,-100.00,ENE,77,8.0,12.0,64,0.00,,,0.00,0.000000,,2013-07-19 11:43:00,
2013-07-19 05:52:00,47.0,36.0,-100.00,East,81,6.0,11.0,66,0.00,,,0.00,0.000000,,2013-07-19 11:52:00,
2013-07-19 06:12:00,47.0,36.0,-100.00,East,81,6.0,11.0,66,0.00,,,0.00,0.000000,,2013-07-19 12:12:00,
2013-07-19 06:22:00,47.0,36.0,-100.00,East,81,6.0,11.0,66,0.00,,,0.00,0.000000,,2013-07-19 12:22:00,
2013-07-19 06:33:00,47.0,36.0,-100.00,East,81,6.0,11.0,66,0.00,,,0.00,0.000000,,2013-07-19 12:33:00,
2013-07-19 06:43:00,47.0,36.0,-100.00,East,81,6.0,11.0,66,0.00,,,0.00,0.000000,,2013-07-19 12:43:00,
2013-07-19 06:52:00,49.0,37.0,-100.00,NNW,337,2.0,12.0,63,0.00,,,0.00,24.000000,,2013-07-19 12:52:00,
2013-07-19 07:22:00,49.0,37.0,-100.00,NNW,337,2.0,12.0,63,0.00,,,0.00,24.000000,,2013-07-19 13:22:00,
2013-07-19 07:32:00,49.0,37.0,-100.00,NNW,337,2.0,12.0,63,0.00,,,0.00,24.000000,,2013-07-19 13:32:00,
2013-07-19 07:43:00,49.0,37.0,-100.00,NNW,337,2.0,12.0,63,0.00,,,0.00,24.000000,,2013-07-19 13:43:00,
2013-07-19 07:52:00,56.0,40.0,-100.00,ENE,58,1.0,5.0,54,0.00,,,0.00,132.000000,,2013-07-19 13:52:00,
2013-07-19 08:43:00,56.0,40.0,-100.00,ENE,58,1.0,5.0,54,0.00,,,0.00,132.000000,,2013-07-19 14:43:00,
2013-07-19 08:52:00,63.0,41.0,-100.00,WNW,282,0.0,5.0,45,0.00,,,0.00,382.000000,,2013-07-19 14:52:00,
2013-07-19 09:43:00,63.0,41.0,-100.00,WNW,282,0.0,5.0,45,0.00,,,0.00,382.000000,,2013-07-19 15:43:00,
2013-07-19 09:52:00,67.0,42.0,-100.00,WNW,303,2.0,6.0,40,0.00,,,0.00,562.000000,,2013-07-19 15:52:00,
2013-07-19 10:22:00,67.0,42.0,-100.00,WNW,303,2.0,6.0,40,0.00,,,0.00,562.000000,,2013-07-19 16:22:00,
2013-07-19 10:32:00,67.0,42.0,-100.00,WNW,303,2.0,6.0,40,0.00,,,0.00,562.000000,,2013-07-19 16:32:00,
2013-07-19 10:43:00,67.0,42.0,-100.00,WNW,303,2.0,6.0,40,0.00,,,0.00,562.000000,,2013-07-19 16:43:00,
2013-07-19 10:52:00,73.0,45.0,-100.00,WNW,300,3.0,6.0,37,0.00,,,0.00,728.000000,,2013-07-19 16:52:00,
2013-07-19 11:22:00,73.0,45.0,-100.00,WNW,300,3.0,6.0,37,0.00,,,0.00,728.000000,,2013-07-19 17:22:00,
2013-07-19 11:32:00,73.0,45.0,-100.00,WNW,300,3.0,6.0,37,0.00,,,0.00,728.000000,,2013-07-19 17:32:00,
2013-07-19 11:43:00,73.0,45.0,-100.00,WNW,300,3.0,6.0,37,0.00,,,0.00,728.000000,,2013-07-19 17:43:00,
2013-07-19 11:52:00,76.0,46.0,-100.00,West,279,4.0,9.0,34,0.00,,,0.00,859.000000,,2013-07-19 17:52:00,
2013-07-19 12:21:00,76.0,46.0,-100.00,West,279,4.0,9.0,34,0.00,,,0.00,859.000000,,2013-07-19 18:21:00,
2013-07-19 12:32:00,76.0,46.0,-100.00,West,279,4.0,9.0,34,0.00,,,0.00,859.000000,,2013-07-19 18:32:00,
2013-07-19 12:42:00,76.0,46.0,-100.00,West,279,4.0,9.0,34,0.00,,,0.00,859.000000,,2013-07-19 18:42:00,
2013-07-19 12:52:00,81.0,39.0,-100.00,West,277,5.0,11.0,22,0.00,,,0.00,946.000000,,2013-07-19 18:52:00,
2013-07-19 13:21:00,81.0,39.0,-100.00,West,277,5.0,11.0,22,0.00,,,0.00,946.000000,,2013-07-19 19:21:00,
2013-07-19 13:32:00,81.0,39.0,-100.00,West,277,5.0,11.0,22,0.00,,,0.00,946.000000,,2013-07-19 19:32:00,
2013-07-19 13:43:00,81.0,39.0,-100.00,West,277,5.0,11.0,22,0.00,,,0.00,946.000000,,2013-07-19 19:43:00,
2013-07-19 13:52:00,82.0,33.0,-100.00,WNW,286,6.0,15.0,17,0.00,,,0.00,973.000000,,2013-07-19 19:52:00,
2013-07-19 14:22:00,82.0,33.0,-100.00,WNW,286,6.0,15.0,17,0.00,,,0.00,973.000000,,2013-07-19 20:22:00,
2013-07-19 14:33:00,82.0,33.0,-100.00,WNW,286,6.0,15.0,17,0.00,,,0.00,973.000000,,2013-07-19 20:33:00,
2013-07-19 14:43:00,82.0,33.0,-100.00,WNW,286,6.0,15.0,17,0.00,,,0.00,973.000000,,2013-07-19 20:43:00,
2013-07-19 14:52:00,83.0,32.0,-100.00,WSW,256,4.0,15.0,16,0.00,,,0.00,954.000000,,2013-07-19 20:52:00,
2013-07-19 15:21:00,83.0,32.0,-100.00,WSW,256,4.0,15.0,16,0.00,,,0.00,954.000000,,2013-07-19 21:21:00,
2013-07-19 15:32:00,83.0,32.0,-100.00,WSW,256,4.0,15.0,16,0.00,,,0.00,954.000000,,2013-07-19 21:32:00,
2013-07-19 15:42:00,83.0,32.0,-100.00,WSW,256,4.0,15.0,16,0.00,,,0.00,954.000000,,2013-07-19 21:42:00,
2013-07-19 15:52:00,85.0,34.0,-100.00,WNW,282,6.0,12.0,16,0.00,,,0.00,885.000000,,2013-07-19 21:52:00,
2013-07-19 16:21:00,85.0,34.0,-100.00,WNW,282,6.0,12.0,16,0.00,,,0.00,885.000000,,2013-07-19 22:21:00,
2013-07-19 16:32:00,85.0,34.0,-100.00,WNW,282,6.0,12.0,16,0.00,,,0.00,885.000000,,2013-07-19 22:32:00,
2013-07-19 16:42:00,85.0,34.0,-100.00,WNW,282,6.0,12.0,16,0.00,,,0.00,885.000000,,2013-07-19 22:42:00,
2013-07-19 16:52:00,84.0,26.0,-100.00,WNW,300,8.0,17.0,12,0.00,,,0.00,773.000000,,2013-07-19 22:52:00,
2013-07-19 17:43:00,84.0,26.0,-100.00,WNW,300,8.0,17.0,12,0.00,,,0.00,773.000000,,2013-07-19 23:43:00,
2013-07-19 17:52:00,84.0,33.0,-100.00,NW,312,6.0,16.0,16,0.00,,,0.00,615.000000,,2013-07-19 23:52:00,
2013-07-19 18:21:00,84.0,33.0,-100.00,NW,312,6.0,16.0,16,0.00,,,0.00,615.000000,,2013-07-20 00:21:00,
2013-07-19 18:32:00,84.0,33.0,-100.00,NW,312,6.0,16.0,16,0.00,,,0.00,615.000000,,2013-07-20 00:32:00,
2013-07-19 18:43:00,84.0,33.0,-100.00,NW,312,6.0,16.0,16,0.00,,,0.00,615.000000,,2013-07-20 00:43:00,
2013-07-19 18:52:00,82.0,31.0,-100.00,West,274,4.0,16.0,16,0.00,,,0.00,431.000000,,2013-07-20 00:52:00,
2013-07-19 19:22:00,82.0,31.0,-100.00,West,274,4.0,16.0,16,0.00,,,0.00,431.000000,,2013-07-20 01:22:00,
2013-07-19 19:32:00,82.0,31.0,-100.00,West,274,4.0,16.0,16,0.00,,,0.00,431.000000,,2013-07-20 01:32:00,
2013-07-19 19:52:00,79.0,37.0,-100.00,NW,306,6.0,13.0,22,0.00,,,0.00,234.000000,,2013-07-20 01:52:00,
2013-07-19 20:22:00,79.0,37.0,-100.00,NW,306,6.0,13.0,22,0.00,,,0.00,234.000000,,2013-07-20 02:22:00,
2013-07-19 20:32:00,79.0,37.0,-100.00,NW,306,6.0,13.0,22,0.00,,,0.00,234.000000,,2013-07-20 02:32:00,
2013-07-19 20:43:00,79.0,37.0,-100.00,NW,306,6.0,13.0,22,0.00,,,0.00,234.000000,,2013-07-20 02:43:00,
2013-07-19 20:52:00,73.0,34.0,-100.00,NNW,333,4.0,12.0,24,0.00,,,0.00,66.000000,,2013-07-20 02:52:00,
2013-07-19 21:22:00,73.0,34.0,-100.00,NNW,333,4.0,12.0,24,0.00,,,0.00,66.000000,,2013-07-20 03:22:00,
2013-07-19 21:32:00,73.0,34.0,-100.00,NNW,333,4.0,12.0,24,0.00,,,0.00,66.000000,,2013-07-20 03:32:00,
2013-07-19 21:44:00,73.0,34.0,-100.00,NNW,333,4.0,12.0,24,0.00,,,0.00,66.000000,,2013-07-20 03:44:00,
2013-07-19 21:52:00,67.0,30.0,-100.00,NNE,28,1.0,7.0,25,0.00,,,0.00,1.000000,,2013-07-20 03:52:00,
2013-07-19 22:22:00,67.0,30.0,-100.00,NNE,28,1.0,7.0,25,0.00,,,0.00,1.000000,,2013-07-20 04:22:00,
2013-07-19 22:33:00,67.0,30.0,-100.00,NNE,28,1.0,7.0,25,0.00,,,0.00,1.000000,,2013-07-20 04:33:00,
2013-07-19 22:44:00,67.0,30.0,-100.00,NNE,28,1.0,7.0,25,0.00,,,0.00,1.000000,,2013-07-20 04:44:00,
2013-07-19 22:52:00,61.0,36.0,-100.00,East,80,4.0,7.0,39,-99.99,,,0.00,0.000000,,2013-07-20 04:52:00,
2013-07-19 23:22:00,61.0,36.0,-100.00,East,80,4.0,7.0,39,-99.99,,,0.00,0.000000,,2013-07-20 05:22:00,
2013-07-19 23:32:00,61.0,36.0,-100.00,East,80,4.0,7.0,39,-99.99,,,0.00,0.000000,,2013-07-20 05:32:00,
2013-07-19 23:52:00,56.0,34.0,-100.00,East,83,5.0,8.0,44,-99.99,,,0.00,0.000000,,2013-07-20 05:52:00,